Orbital Elements at Epoch 2459200.5 (2020-Dec-17.0) TDB
Reference: JPL 17 (heliocentric ecliptic J2000)
Element | Value | Uncertainty (1-sigma) | Units |
e | .1934059656446407 | 3.6649e-08 | |
a | 2.28887343779151 | 1.0229e-08 | au |
q | 1.846191660317075 | 8.7275e-08 | au |
i | 6.258175051314621 | 5.3039e-06 | deg |
node | 4.023077636457709 | 3.6423e-05 | deg |
peri | 299.8667334193276 | 3.9108e-05 | deg |
M | 100.7071131261324 | 1.3304e-05 | deg |
tp | 2458846.674815678440 (2019-Dec-29.17481568) | 4.6473e-05 | TDB |
period | 1264.826906479047 3.46 | 8.4788e-06 2.321e-08 | d yr |
n | .2846239261324283 | 1.908e-09 | deg/d |
Q | 2.731555215265946 | 1.2207e-08 | au |
|
| | Orbit Determination Parameters
Additional Information
|